User: anonymous   Login
Location: Wellington
(41.3000°S, 174.7830°E)
Time: 20:14:32
(UTC+13:00)
Language:

CZ-2C R/B - Orbit

View from above orbital plane
View from above orbital plane
View from above satellite
View from above satellite

Ground track
Ground track

The orbit data is extracted from the following two-line orbital elements,

1 31114U 07010B   19290.87874657 -.00000020 +00000-0 +94645-5 0  9997
2 31114 098.2905 154.6746 0058552 256.6726 102.7918 14.19300109648450
Epoch (UTC): 17 October 2019 21:05:23
Eccentricity: 0.0058552
inclination: 98.2905°
perigee height: 785 km
apogee height: 870 km
right ascension of ascending node: 154.6746°
argument of perigee: 256.6726°
revolutions per day: 14.19300109
mean anomaly at epoch: 102.7918°
orbit number at epoch: 64845

The dashed part of the orbit path shows where the satellite is in the earth's shadow,  

DLR